CAPE
44 15 38 35 7 0 0 0 0 0 0 0 8 16 44 23 5 0 0 0 0 0 0 0 0 0 0 0 0 0 0 0 0 0 0 0 0 0 0 0 0 0 0 0 0
43 39 44 31 33 10 0 2 8 0 0 0 0 26 34 30 13 1 0 0 0 0 0 0 0 0 0 0 0 0 0 0 0 0 0 0 0 0 0 0 0 0 0 0 1
22 29 31 19 34 4 10 3 4 0 0 0 0 32 39 31 43 2 0 0 0 0 0 0 0 0 0 0 0 0 0 0 0 0 0 0 0 0 0 0 0 0 0 1 3
29 31 26 29 31 7 5 5 0 4 0 0 0 55 41 36 6 0 0 0 0 0 0 0 18 0 0 0 0 0 0 0 0 0 0 0 0 0 0 0 0 0 0 0 3
19 18 9 7 31 34 6 13 2 5 0 0 0 61 27 26 2 0 0 0 0 0 0 0 43 0 0 0 0 0 0 0 0 0 0 0 0 0 0 0 0 0 0 0 0
20 17 0 0 6 25 58 17 17 4 0 0 0 10 26 10 0 0 0 0 0 0 0 0 54 0 0 0 0 0 0 0 0 0 0 0 0 0 0 0 0 0 0 0 0
0 0 0 19 21 80 75 43 33 25 1 0 0 15 37 0 0 0 0 0 0 0 0 0 20 9 0 0 0 0 0 0 0 0 0 0 0 0 0 0 0 0 0 0 0
0 0 0 49 13 40 81 38 42 23 8 15 0 3 16 13 18 8 0 0 0 0 0 6 3 18 0 0 0 0 0 0 0 0 0 0 0 0 0 0 0 0 0 0 0
0 0 15 48 12 18 119 75 38 46 36 0 3 15 3 0 4 0 0 0 0 0 0 0 0 2 0 0 0 0 0 0 0 0 0 0 0 0 0 0 0 0 0 0 0
24 37 32 15 37 115 106 67 32 63 52 37 10 3 0 0 0 0 5 0 0 0 0 1 0 2 0 0 0 0 0 0 0 0 0 0 0 0 0 0 0 0 0 0 0
21 0 0 10 43 10 21 38 28 55 27 11 28 7 0 0 2 0 39 40 11 0 3 1 1 0 0 0 3 0 0 0 0 0 0 0 0 0 0 0 0 0 0 0 0
13 19 0 2 0 4 8 6 4 3 2 5 30 7 0 1 1 7 43 38 10 2 0 0 1 0 0 0 0 0 0 7 0 0 0 0 0 0 0 0 0 0 0 0 0
47 50 25 0 4 0 11 19 13 22 4 21 13 2 0 10 0 4 5 6 5 3 0 0 0 0 0 0 2 8 1 10 0 0 0 0 0 0 0 0 0 0 0 0 0
31 3 11 24 0 0 0 1 0 22 0 0 2 2 0 10 1 0 14 6 4 0 3 0 15 1 9 12 5 1 0 1 0 0 0 0 0 0 0 0 0 0 0 0 0
0 5 2 9 0 1 5 0 0 16 0 1 3 0 2 2 0 14 0 2 7 1 0 0 0 8 3 0 0 0 0 0 0 0 0 0 0 0 0 0 0 0 0 0 0
15 0 0 8 15 4 4 0 31 1 0 0 0 1 18 9 6 14 44 0 2 9 8 0 0 24 6 0 0 0 0 0 0 0 0 0 0 0 0 0 0 0 0 0 0
7 0 0 0 2 2 9 0 1 0 0 0 1 2 5 0 4 7 0 2 3 0 0 0 7 0 0 0 0 0 0 0 0 0 0 0 0 0 0 0 0 0 0 0 0
1 0 5 0 14 0 0 0 1 0 0 1 0 1 2 2 4 1 0 1 5 0 0 1 2 0 0 0 0 0 0 0 0 0 0 0 0 0 0 0 0 0 0 0 0
1 0 3 0 20 0 0 0 0 0 0 1 1 2 0 1 0 2 0 0 0 0 0 0 0 0 0 0 0 0 0 0 0 0 0 0 0 0 0 0 0 0 0 0 0
0 1 6 0 0 0 0 0 0 2 0 0 0 0 0 0 1 1 0 0 0 0 0 0 0 0 0 0 0 0 0 0 0 0 0 0 0 0 0 0 0 0 0 0 0
11 0 16 0 0 0 0 0 0 1 2 0 0 1 0 0 0 1 0 0 0 0 0 0 0 0 0 0 0 0 0 0 0 0 0 0 0 0 0 0 0 0 0 0 0
0 0 5 8 0 0 0 4 1 1 1 0 0 0 0 0 1 1 0 0 0 0 0 0 0 0 0 0 0 0 0 0 0 0 0 0 0 0 0 0 0 0 0 0 0
2 0 1 10 0 0 0 0 0 0 2 0 0 0 0 1 0 0 1 1 2 1 0 0 0 0 0 0 0 0 0 0 0 0 0 0 0 0 0 0 0 0 0 0 0
0 0 0 0 0 0 0 0 0 0 1 0 0 0 1 0 0 2 0 0 0 0 0 0 0 0 0 0 0 0 0 0 0 0 0 0 0 0 0 0 0 0 0 0 0
0 0 0 2 0 0 0 0 1 0 2 0 0 0 0 0 0 4 0 0 0 0 0 0 0 0 0 0 0 0 0 0 0 0 0 0 0 0 0 0 0 0 0 0 0
0 0 0 0 0 0 1 0 0 0 0 1 0 0 0 0 0 0 0 0 0 0 0 0 0 0 0 0 0 0 0 0 0 0 0 0 0 0 0 0 0 0 0 0 0
0 0 10 1 0 0 0 0 0 1 0 0 0 0 0 0 0 0 0 0 0 0 0 0 0 0 0 0 0 0 0 0 0 0 0 0 0 0 0 0 0 0 0 0 0
CIN
-0 -0 -0 -0 0 0 -0 0 0 0 0 0 -5 -12 -9 -22 -43 0 0 0 0 0 0 0 0 0 0 0 0 0 0 0 0 0 0 0 0 0 0 0 0 0 0 0 0
-0 -0 -0 -0 -0 -0 -0 0 0 0 0 0 0 -3 -9 -22 -25 -12 0 0 0 0 0 0 0 0 0 0 0 0 0 0 0 0 0 0 0 0 0 0 0 0 0 0 -1
-2 -1 0 -0 -0 -0 0 0 -0 0 0 0 0 -7 -6 -18 -0 -1 0 0 0 0 0 0 0 0 0 0 0 0 0 0 0 0 0 0 0 0 0 0 0 0 0 -0 0
-2 -2 -0 -0 -0 0 -0 -0 0 -0 0 0 0 -0 -8 -5 -0 0 0 0 0 0 0 -0 -2 -0 0 0 0 0 0 0 0 0 0 0 0 0 0 0 0 0 0 0 0
-2 -2 -2 -3 -0 -0 -4 -0 0 -0 0 0 0 -1 -9 -0 -0 0 0 0 0 0 0 -0 -1 -1 0 0 0 0 0 0 0 0 0 0 0 0 0 0 0 0 0 0 0
-3 -0 0 0 -5 -7 -1 -3 -9 -6 0 0 0 0 0 -0 0 0 0 0 0 0 0 0 -2 0 0 0 0 0 0 0 0 0 0 0 0 0 0 0 0 0 0 0 0
-0 0 0 -2 -20 -1 -2 -2 -16 -2 0 0 0 -4 0 -0 0 0 0 0 0 0 0 0 -5 -6 0 0 0 0 0 0 0 0 0 0 0 0 0 0 0 0 0 0 0
0 0 0 -6 -30 -12 -9 -6 -14 -15 -46 -53 0 -1 -0 -4 -16 -7 0 0 0 0 0 -47 -64 -14 -4 0 0 0 0 0 0 0 0 0 0 0 0 0 0 0 0 0 0
0 0 -28 -16 -48 -44 -1 -1 -10 -9 -49 0 -0 0 -3 0 -18 0 0 0 0 0 0 -36 0 -27 0 0 0 0 0 0 0 0 0 0 0 0 0 0 0 0 0 0 0
-7 -7 -13 -39 -28 -14 -1 -1 -5 -8 -34 0 -0 -2 0 0 -1 0 -16 0 0 0 0 -3 0 -33 0 0 -2 0 0 0 0 0 0 0 0 0 0 0 0 0 0 0 0
-9 0 0 -41 -18 -16 -5 0 -4 -1 -6 -0 -1 -3 0 0 -1 0 -4 -4 -1 -0 0 -0 0 0 -3 0 -22 0 0 0 0 0 0 0 0 0 0 0 0 0 0 0 0
-19 -28 0 -62 0 -9 -12 -4 -1 -7 -0 -1 -1 -5 0 -0 -0 -13 -14 -1 -0 0 0 -1 0 0 0 0 0 -17 -1 -8 0 0 0 0 0 0 0 0 0 0 0 0 0
-6 -6 -10 0 -5 0 -2 -1 -7 -14 -0 0 -8 -1 0 -2 0 -0 -15 -5 -1 -6 0 -0 -1 -1 -2 0 -9 -2 -1 -20 -0 0 0 0 0 0 0 0 0 0 0 0 0
-13 -39 -15 -2 -1 0 0 -6 -1 -14 0 0 -0 -2 -5 -5 -0 0 -9 -13 -13 -1 -25 -1 -8 -1 -4 -6 -0 -2 0 -6 0 0 0 0 0 0 0 0 0 0 0 0 0
-1 -29 -5 -7 -0 -0 -2 -0 -3 -5 0 0 -0 0 -2 -1 -1 -1 0 -12 -12 -7 0 -16 0 -0 -4 -1 -0 0 0 0 0 0 0 0 0 0 0 0 0 0 0 0 0
-5 0 0 -3 -2 -9 -40 0 0 -1 -1 0 -0 -3 0 -0 -0 0 -4 0 -6 -24 -31 0 0 -24 -5 0 0 0 0 0 0 0 0 0 0 0 0 0 0 0 0 0 0
-0 0 0 -0 -0 -8 -16 0 0 -2 0 0 0 -0 -0 0 -0 -0 0 -29 -10 0 0 0 -14 0 0 0 0 0 0 0 0 0 0 0 0 0 0 0 0 0 0 0 0
-1 0 -1 -0 -6 -9 0 0 -11 0 0 0 0 0 0 0 0 0 0 -12 -11 0 0 -4 -8 0 0 0 0 0 0 0 0 0 0 0 0 0 0 0 0 0 0 0 0
-0 0 -1 0 -10 0 0 0 0 0 0 0 0 0 0 0 0 0 0 0 0 0 0 0 0 0 0 0 0 0 -4 0 0 0 0 0 0 0 0 0 0 0 0 0 0
0 -2 -2 -0 0 0 0 -0 0 0 0 -0 -0 -0 0 0 0 0 -0 0 0 0 0 0 0 0 0 0 0 0 0 0 0 0 0 0 0 0 0 0 0 0 0 0 0
-3 0 -0 0 0 0 0 0 0 0 -0 -0 -0 -1 0 0 0 0 0 0 0 0 0 0 0 0 0 0 0 0 0 0 0 0 0 0 0 0 0 0 0 0 0 0 0
-1 0 -2 -26 -0 0 0 -1 -0 0 -0 0 0 -1 0 0 0 -1 0 0 0 0 0 0 0 0 0 0 0 0 0 0 0 0 0 0 0 0 0 0 0 0 0 0 0
-2 -1 0 -11 0 0 0 0 0 0 0 -0 0 0 0 -0 0 -0 -1 -5 -3 -6 0 0 0 0 0 0 0 0 0 0 0 0 0 0 0 0 0 0 0 0 0 0 0
0 0 -1 -0 0 0 0 0 0 0 0 -1 0 0 -0 -0 0 -1 -3 -1 -2 0 0 0 0 0 0 0 0 0 0 0 0 0 0 0 0 0 0 0 0 0 0 0 0
0 -1 0 -1 0 0 0 0 0 0 0 0 0 0 0 0 0 -1 0 -0 0 0 0 0 0 0 0 0 0 0 0 0 0 0 0 0 0 0 0 0 0 0 0 0 0
0 0 0 0 0 0 0 0 0 0 0 0 0 0 0 0 0 0 0 0 0 0 0 0 0 0 0 0 0 0 0 0 0 0 0 0 0 0 0 0 0 0 0 0 0
0 0 -20 -4 0 0 0 0 0 0 0 0 0 -0 0 0 0 0 0 0 0 0 0 0 0 0 0 0 0 0 0 0 0 0 0 0 0 0 0 0 0 0 0 0 0
Wind_Speed
34 34 34 35 37 40 41 43 44 39 39 38 40 35 35 31 29 32 41 32 30 23 22 21 22 20 20 26 27 25 29 31 30 25 20 13 15 16 14 12 14 14 15 11 16
36 34 33 35 37 39 41 40 44 44 40 40 41 37 34 31 36 45 35 33 23 22 24 23 23 19 24 25 26 26 28 26 25 24 20 12 15 12 15 12 13 13 10 11 15
37 35 35 36 38 38 40 40 43 46 42 41 40 41 32 30 44 48 34 29 25 23 26 25 21 20 29 23 28 28 36 29 26 21 18 17 17 11 15 13 13 8 5 7 12
36 35 37 37 38 38 39 39 41 44 43 45 41 40 31 34 53 41 32 28 25 23 27 29 29 25 29 30 27 28 32 27 25 23 22 22 21 18 17 17 18 2 6 7 11
37 36 36 37 38 37 37 38 38 45 47 43 40 36 33 48 56 24 27 28 26 27 31 30 32 29 32 27 25 36 31 30 25 24 25 23 22 21 20 18 15 3 3 5 10
36 35 35 36 36 35 34 37 40 44 49 46 42 40 41 65 39 27 22 26 29 29 29 30 30 27 31 28 26 29 31 29 31 29 25 25 24 20 23 17 11 5 4 0 6
34 35 34 33 35 33 33 41 43 46 50 51 49 45 49 61 36 24 24 27 27 28 29 28 26 28 28 27 24 25 26 27 29 27 27 25 28 25 24 14 14 9 5 3 3
32 33 33 32 32 33 34 41 48 46 50 52 49 42 55 43 32 35 26 27 26 27 28 24 23 24 27 24 22 24 25 29 29 26 27 23 36 32 24 16 16 13 8 4 4
30 31 29 27 29 32 33 42 47 44 50 52 50 48 50 34 44 32 29 29 24 22 22 20 21 27 27 27 29 29 28 27 22 21 23 19 27 29 19 18 20 16 12 7 5
24 22 22 24 26 28 33 36 45 48 52 47 55 45 37 48 42 32 29 27 27 23 26 27 28 35 33 32 34 29 26 28 28 22 23 21 24 20 22 22 25 27 16 11 8
25 22 21 20 28 34 36 36 40 49 52 60 43 46 40 39 32 33 30 28 27 31 39 34 39 46 41 36 30 30 30 29 28 20 20 24 23 34 25 18 22 25 28 16 11
28 26 25 26 30 33 41 43 47 37 48 63 45 43 33 38 41 36 32 35 38 44 36 38 52 41 35 37 35 30 32 30 21 21 24 28 38 37 22 20 25 24 25 29 17
26 26 28 32 32 34 38 50 45 44 41 46 44 43 36 37 45 45 38 34 41 42 45 48 41 35 36 37 39 34 30 29 28 24 28 32 40 39 31 11 14 29 21 19 21
25 28 32 28 31 35 44 41 40 40 45 43 47 43 42 36 42 38 36 28 36 44 41 41 34 37 37 41 28 35 27 24 26 27 33 24 36 30 28 11 14 13 18 18 19
22 27 29 30 30 32 32 30 38 41 51 37 45 33 40 41 34 43 37 31 39 39 39 43 43 37 41 41 32 34 21 22 24 29 32 30 33 29 28 21 14 10 12 12 14
22 26 27 35 35 30 26 31 39 51 51 38 41 44 50 37 38 38 40 29 29 34 37 37 30 34 35 29 21 18 17 18 23 29 39 35 31 34 28 26 23 16 10 11 12
25 28 28 28 33 23 26 34 51 59 32 39 49 50 46 42 38 45 44 43 41 42 47 32 35 29 27 31 25 29 26 34 37 38 40 30 33 42 27 26 25 24 23 20 10
27 29 29 31 30 27 26 38 53 54 37 32 47 51 49 43 37 43 47 48 40 37 36 46 46 37 33 36 35 35 31 33 39 40 37 31 36 34 30 28 28 27 23 22 23
23 27 31 32 26 21 29 45 45 39 42 39 46 55 47 46 34 40 47 53 44 40 41 44 40 30 32 29 29 37 39 26 28 29 35 34 36 36 34 31 28 26 23 22 23
23 25 28 21 21 26 37 38 38 31 36 41 54 52 54 46 45 42 46 47 42 40 31 32 38 32 32 25 29 34 28 36 33 40 42 37 36 34 27 24 23 21 21 20 18
20 30 25 18 22 28 38 38 37 35 34 45 46 51 48 47 45 44 44 37 40 40 30 25 31 34 29 38 39 33 37 32 31 33 37 39 36 27 25 24 21 17 17 15 17
22 32 23 20 30 32 39 35 30 36 38 39 43 43 48 49 44 45 44 35 40 40 38 29 28 37 37 27 30 33 34 33 38 40 38 35 40 19 17 15 16 14 14 14 13
25 23 20 24 36 37 36 40 38 35 47 35 41 42 44 46 40 41 46 34 37 37 37 29 30 34 34 33 30 38 33 32 28 28 38 42 42 23 20 20 17 13 16 12 12
19 26 26 30 31 34 36 40 39 37 45 41 40 32 44 44 39 42 38 36 37 41 34 29 29 35 43 36 27 34 32 31 31 37 35 41 35 26 22 21 17 16 15 14 17
16 26 28 35 36 33 36 29 37 42 36 43 42 42 40 39 38 45 38 39 37 36 33 36 35 31 26 26 27 30 30 30 34 34 35 35 35 30 24 20 15 17 21 23 26
20 24 27 29 28 33 33 30 35 36 36 44 46 46 44 44 40 41 40 37 41 36 37 35 33 28 30 25 26 29 29 30 30 30 34 36 40 27 25 30 29 24 23 26 26
15 15 24 28 30 31 33 30 32 33 34 38 41 43 48 40 35 32 32 33 40 39 38 32 28 29 32 23 22 31 28 29 32 32 29 35 31 24 28 31 29 29 30 30 31
Wind_Direction
263 263 262 260 258 255 255 251 247 249 251 253 253 249 248 248 249 249 245 255 255 267 271 265 267 272 266 251 257 265 255 253 255 266 282 294 290 292 304 315 311 310 316 34 109
261 263 264 261 258 256 254 255 250 243 247 251 254 247 246 246 248 245 249 251 256 256 259 257 256 260 256 252 251 251 251 254 266 269 279 295 288 296 293 306 305 317 358 51 103
259 262 263 261 259 257 255 255 249 243 243 247 252 246 243 244 246 245 242 247 248 252 255 255 253 256 247 254 249 252 247 259 269 273 278 286 286 300 287 293 299 316 13 58 103
258 260 260 261 260 257 255 254 251 245 239 243 251 243 235 238 240 245 236 240 243 247 249 247 244 243 246 247 252 255 251 261 263 268 272 277 283 283 279 290 295 78 81 95 116
257 259 260 261 261 257 256 253 251 245 236 240 244 237 231 236 234 259 232 229 236 240 240 241 239 241 244 255 255 247 254 255 259 267 268 276 275 276 277 281 304 62 57 103 124
258 261 261 261 262 259 254 252 250 245 235 237 240 244 233 233 238 251 232 228 231 232 237 239 243 244 252 256 250 256 253 258 257 264 268 269 273 277 274 280 294 303 308 11 133
260 262 262 262 262 258 254 247 247 241 231 232 238 238 234 232 232 239 233 233 228 230 236 241 252 242 251 252 259 260 254 257 259 259 264 268 266 267 273 279 277 281 289 279 164
261 263 263 261 261 257 253 246 240 236 229 229 230 228 236 230 236 234 230 227 229 233 239 242 249 245 251 253 254 251 258 255 261 259 262 266 263 265 272 269 275 277 273 243 198
260 262 262 259 259 255 249 243 234 231 228 226 229 234 232 221 231 220 220 217 220 229 238 241 243 244 245 240 244 243 253 256 264 256 257 265 272 265 272 270 271 272 269 250 233
256 255 256 256 255 252 246 244 229 227 226 230 232 221 229 216 217 210 215 210 218 217 230 234 240 237 237 231 235 240 250 252 257 258 258 268 274 279 267 270 270 268 267 257 250
249 253 254 253 251 246 239 235 224 226 223 218 231 214 218 210 205 209 203 207 219 222 226 229 231 231 231 234 246 244 248 257 255 261 262 265 274 259 273 280 272 267 265 264 254
246 248 249 250 245 243 235 234 227 223 220 226 232 212 211 201 206 203 194 217 215 220 223 228 231 234 235 237 241 248 246 250 260 257 263 267 258 259 278 279 269 266 266 266 269
241 242 242 239 236 237 239 230 229 219 225 225 209 205 203 200 207 201 197 218 219 220 222 228 236 233 235 236 239 244 243 245 256 261 267 271 265 261 272 255 259 265 263 266 268
237 239 234 236 239 240 237 236 226 214 225 222 207 212 208 209 215 197 200 214 224 223 223 233 234 228 232 236 236 241 249 251 253 261 264 273 270 275 275 248 214 249 258 253 255
235 236 233 229 237 240 240 233 228 215 225 217 205 203 202 209 200 203 201 225 219 222 224 229 228 227 229 237 239 247 249 251 258 262 265 267 272 278 274 279 273 251 253 245 233
234 237 237 232 240 246 243 235 223 214 227 214 205 203 199 207 199 191 205 223 220 219 229 232 234 233 237 232 236 225 243 257 264 264 262 261 267 268 272 276 283 287 269 242 235
235 240 239 240 239 247 240 231 216 218 222 215 201 195 196 205 207 194 204 209 212 212 220 226 227 235 226 227 234 245 239 250 255 257 259 265 264 259 271 277 289 291 291 293 262
236 241 242 242 243 244 244 227 221 221 219 217 200 196 205 200 217 200 204 211 217 221 214 221 227 226 227 228 232 229 245 248 253 255 262 263 264 270 276 283 282 287 289 293 298
237 240 240 243 245 240 239 225 222 221 213 209 196 197 207 206 207 203 205 210 218 212 220 223 233 227 225 235 226 235 240 257 258 264 262 263 269 273 275 276 283 286 289 289 291
231 235 237 239 241 240 240 233 230 236 211 200 201 200 206 205 208 211 210 212 219 218 224 228 229 235 229 234 245 241 243 248 254 256 260 265 268 269 276 281 290 293 292 290 297
229 229 238 235 241 238 235 236 236 238 214 201 204 205 207 199 205 208 211 216 212 206 218 212 229 234 232 240 235 238 240 249 251 257 260 264 270 276 276 286 292 298 304 302 303
231 228 235 236 231 238 239 232 240 232 218 216 213 209 198 195 203 209 212 222 207 207 214 225 235 231 234 252 244 244 244 246 251 256 260 267 267 286 291 300 308 308 307 308 318
230 241 242 239 227 237 240 237 237 231 215 214 208 215 203 202 213 217 217 227 205 207 208 214 232 229 238 250 245 242 242 242 257 263 258 258 266 271 283 294 299 299 311 303 308
234 230 232 233 240 240 235 234 231 230 218 215 206 202 199 207 220 212 214 218 207 208 218 225 231 236 236 242 238 239 238 240 248 256 260 258 267 276 280 287 295 292 302 300 297
248 235 230 226 233 233 233 239 228 219 223 214 205 203 189 202 210 216 210 217 210 210 218 228 234 236 242 244 240 236 234 238 242 250 254 262 264 267 276 276 282 291 292 296 297
245 238 236 234 235 230 235 231 227 219 217 211 208 205 202 210 214 198 196 210 209 214 217 227 234 234 246 244 244 243 239 235 239 244 256 264 268 274 273 273 280 289 293 293 297
265 274 245 234 232 232 233 232 229 218 220 218 216 205 211 214 217 214 211 218 217 209 217 220 224 228 241 242 244 249 228 232 246 250 245 259 254 278 271 275 280 283 286 290 295